Location: Newark
(18.8808°N, 99.0693°W)
Time: 09:09:51
(UTC+00:00)

N. Korean satellite - Visible Passes

Search period start: 25 August 2019 00:00
Search period end: 04 September 2019 00:00
Orbit: 457 x 507 km, 97.2° (Epoch: 24 August)

Date Brightness Start Highest point End Pass type
(mag) Time Alt. Az. Time Alt. Az. Time Alt. Az.
25 Aug 10.3 11:28:54 10° E 11:29:00 10° E 11:29:06 10° E visible
28 Aug 9.5 11:44:22 10° NE 11:46:55 19° E 11:49:27 10° SE visible
01 Sep 9.7 11:37:33 10° ENE 11:39:35 15° E 11:41:36 10° SE visible
